Location: Highridge
(54.0333°N, 114.1333°W)
Time: 06:04:52
(UTC+00:00)

SO-50 - Pass Details

Date: 12 December 2023
Orbit: 608 x 660 km, 64.6° (Epoch: 02 March)

Event Time Altitude Azimuth Distance (km) Brightness Sun altitude
Exits shadow 14:00:13 16° 328° (NNW) 1,684 ? -14.3°
Maximum altitude 14:02:38 23° 9° (N) 1,351 ? -13.9°
Drops below altitude 10° 14:06:18 10° 63° (ENE) 2,012 ? -13.4°
Sets 14:08:58 0° 78° (ENE) 2,908 ? -13.1°
